Regional Weather Roundup
Issued by NWS Memphis, TN

Home | Current Version | Previous Version | Text Only | Print | Product List | Glossary On
Versions: 1 2 3 4 5 6 7 8 9 10 11 12 13 14 15 16 17 18 19 20 21 22 23 24 25 26 27 28 29 30 31 32 33 34 35 36 37 38 39 40 41 42 43 44 45 46 47 48 49 50
000
ASUS44 KMEG 281410
RWRMEG
MEMPHIS CWA HOURLY WEATHER ROUNDUP
NATIONAL WEATHER SERVICE MEMPHIS TN
900 AM CDT SAT MAY 28 2016

...WEST TENNESSEE...

CITY           SKY/WX    TMP DP  RH WIND       PRES   REMARKS
MEMPHIS INTL   PTSUNNY   76  67  73 S9        30.00R
NWS MEMPHIS      N/A     76 N/A N/A MISG        N/A
JACKSON        CLOUDY    75  66  73 S9G18     30.03R
LEXINGTON      MOSUNNY   75  66  73 SE7       30.04S
DYERSBURG      CLOUDY    73  66  78 S7        30.00R
UNION CITY     MOSUNNY   73  68  83 SE9       30.00R
PARIS          MOSUNNY   73  64  73 SE10      30.03S


...EASTERN ARKANSAS...

CITY           SKY/WX    TMP DP  RH WIND       PRES   REMARKS
JONESBORO      CLOUDY    72  67  84 S8        29.97R
WEST MEMPHIS   CLOUDY    75  67  76 S13       29.97R
BATESVILLE     MOSUNNY   72  64  78 S6        29.96R
NEWPORT        MOSUNNY   74  68  81 S12       29.97R
WALNUT RIDGE   MOSUNNY   72  64  78 S12       29.96S
BLYTHEVILLE    PTSUNNY   74  67  78 S13       29.99R
SEARCY         PTSUNNY   72  66  83 S8        29.97R
STUTTGART      MOSUNNY   73  64  73 S14       29.97R
PINE BLUFF     MOSUNNY   72  66  81 SE9       29.96R
MONTICELLO     PTSUNNY   73  67  81 VRB5      29.97R


...NORTH MISSISSIPPI...

CITY           SKY/WX    TMP DP  RH WIND       PRES   REMARKS
TUPELO         MOSUNNY   79  67  66 S10       30.04R
OXFORD         SUNNY     75  64  69 SE7       30.04R
BATESVILLE     PTSUNNY   74  67  79 CALM      30.01R
OLIVE BRANCH   PTSUNNY   72  72 100 S7        30.01R
TUNICA         PTSUNNY   73  64  73 S10       29.99S
CLARKSDALE     SUNNY     75  72  88 SE7       29.99R
CORINTH        SUNNY     77  66  69 S7G13     30.04S
GREENWOOD      CLOUDY    77  67  71 SE8       29.99R
COLUMBUS       SUNNY     79  69  70 S9        30.03S
STARKVILLE     SUNNY     77  68  73 S8        30.02S
GOLDEN TRIANGL MOSUNNY   77  66  69 SE9       30.03S


...SOUTHEAST MISSOURI...

CITY           SKY/WX    TMP DP  RH WIND       PRES   REMARKS
KENNETT        PTSUNNY   73  70  88 S9G15     29.97R
WEST PLAINS    MOSUNNY   69  62  78 S8        29.96R
POPLAR BLUFF   CLOUDY    71  67  87 S9        29.97R
CAPE GIRARDEAU CLOUDY    71  67  87 S9        29.97R


...NORTHWEST ALABAMA...

CITY           SKY/WX    TMP DP  RH WIND       PRES   REMARKS
MUSCLE SHOALS  CLOUDY    75  65  70 SE8       30.09R


...MIDDLE TENNESSEE...

CITY           SKY/WX    TMP DP  RH WIND       PRES   REMARKS
NASHVILLE      CLOUDY    76  62  62 S6        30.10R
CLARKSVILLE    CLOUDY    77  67  71 S7        30.06R
COLUMBIA       SUNNY    N/A N/A N/A SE5       30.08R


...WESTERN KENTUCKY...

CITY           SKY/WX    TMP DP  RH WIND       PRES   REMARKS
PADUCAH        CLOUDY    74  65  73 SE8       30.00R
FORT CAMPBELL  CLOUDY    77  67  72 S8        30.06R


...CENTRAL ARKANSAS...

CITY           SKY/WX    TMP DP  RH WIND       PRES   REMARKS
LITTLE ROCK    PTSUNNY   70  64  81 CALM      29.96R


SKY/WX REPORTED AS FAIR MEANS FEW OR NO CLOUDS BELOW
12 THOUSAND FEET.




USA.gov is the U.S. government's official web portal to all federal, state and local government web resources and services.